Total_Precipitation_Accumulation
2.03 1.57 1.02 0.61 0.50 0.46 0.42 0.54 0.65 0.65 0.64 0.69 0.71 0.60 0.58 0.53 0.52 0.55 0.53 0.58 0.72 0.92 1.14 1.28 1.44 1.66 1.84 1.85 1.88 2.03 2.15 2.26 2.36 2.48 2.45 2.32 2.26 2.20 2.10 1.94 1.78 1.63 1.55 1.58
1.72 1.16 0.54 0.39 0.42 0.42 0.41 0.48 0.56 0.58 0.58 0.68 0.72 0.65 0.58 0.59 0.57 0.54 0.52 0.53 0.67 0.84 1.01 1.17 1.34 1.50 1.66 1.76 1.83 2.00 2.15 2.21 2.20 2.30 2.44 2.35 2.37 2.37 2.34 2.25 2.08 1.90 1.77 1.72
1.33 0.78 0.44 0.46 0.51 0.45 0.37 0.40 0.47 0.53 0.58 0.72 0.81 0.80 0.62 0.59 0.57 0.50 0.48 0.53 0.67 0.83 0.93 1.06 1.21 1.32 1.44 1.64 1.86 1.97 2.06 2.17 2.19 2.40 2.80 2.74 2.61 2.54 2.49 2.39 2.27 2.13 2.01 1.93
1.18 0.68 0.51 0.51 0.45 0.41 0.39 0.31 0.40 0.48 0.69 0.85 0.85 1.06 0.70 0.65 0.62 0.52 0.48 0.53 0.68 0.79 0.83 0.94 1.15 1.23 1.29 1.45 1.70 1.98 2.09 2.22 2.38 2.58 2.79 2.83 2.58 2.38 2.34 2.35 2.34 2.30 2.09 2.01
1.12 0.77 0.62 0.57 0.42 0.38 0.40 0.30 0.38 0.47 0.61 0.76 0.64 0.83 0.76 0.61 0.64 0.64 0.60 0.61 0.73 0.81 0.86 0.92 1.12 1.22 1.21 1.31 1.48 1.74 2.01 2.12 2.35 2.53 2.62 2.77 2.58 2.31 2.33 2.33 2.28 2.31 2.21 2.03
0.78 0.66 0.70 0.58 0.40 0.39 0.40 0.40 0.47 0.55 0.68 0.78 0.54 0.66 0.75 0.67 0.67 0.67 0.68 0.74 0.84 0.88 0.89 0.95 1.09 1.10 1.09 1.14 1.27 1.43 1.66 1.78 1.90 2.11 2.32 2.48 2.50 2.42 2.34 2.21 2.15 2.14 2.12 2.07
0.92 0.75 0.62 0.53 0.53 0.46 0.47 0.66 0.89 0.99 0.89 0.66 0.44 0.51 0.72 0.65 0.60 0.63 0.71 0.77 0.82 0.84 0.81 0.91 1.01 0.95 0.92 0.97 1.08 1.20 1.32 1.45 1.55 1.69 1.90 2.09 2.22 2.31 2.32 2.24 2.13 2.04 1.93 1.88
0.93 1.01 0.59 0.49 0.51 0.50 0.43 0.55 0.75 0.78 0.54 0.42 0.31 0.46 0.64 0.62 0.62 0.61 0.68 0.69 0.69 0.71 0.75 0.89 1.04 0.99 0.90 0.90 0.92 0.95 1.07 1.24 1.35 1.40 1.56 1.70 1.76 1.83 1.89 1.97 1.95 1.92 1.83 1.75
0.56 0.65 0.41 0.32 0.27 0.32 0.42 0.39 0.35 0.59 0.41 0.31 0.33 0.43 0.56 0.57 0.57 0.58 0.63 0.61 0.59 0.62 0.73 0.85 0.91 0.88 0.81 0.81 0.81 0.81 0.92 1.06 1.11 1.13 1.22 1.27 1.32 1.37 1.45 1.53 1.56 1.56 1.60 1.64
0.32 0.44 0.34 0.26 0.25 0.26 0.26 0.25 0.35 0.66 0.60 0.39 0.29 0.35 0.57 0.58 0.58 0.57 0.55 0.53 0.53 0.58 0.66 0.69 0.69 0.65 0.64 0.70 0.76 0.76 0.81 0.85 0.86 0.87 0.92 0.94 0.95 1.02 1.11 1.21 1.21 1.20 1.25 1.35
0.19 0.31 0.31 0.26 0.30 0.25 0.20 0.24 0.32 0.45 0.42 0.38 0.28 0.38 0.42 0.48 0.52 0.51 0.48 0.47 0.47 0.51 0.52 0.51 0.49 0.49 0.52 0.55 0.59 0.60 0.63 0.69 0.70 0.66 0.67 0.71 0.73 0.76 0.87 0.99 1.07 1.11 1.10 1.09
0.15 0.24 0.26 0.19 0.12 0.10 0.12 0.18 0.30 0.50 0.38 0.30 0.27 0.34 0.32 0.34 0.38 0.38 0.36 0.36 0.37 0.40 0.40 0.42 0.42 0.41 0.42 0.43 0.46 0.51 0.54 0.59 0.58 0.53 0.53 0.55 0.59 0.61 0.67 0.76 0.84 0.90 0.95 0.98
0.20 0.27 0.31 0.27 0.20 0.14 0.16 0.17 0.22 0.41 0.60 0.41 0.35 0.36 0.31 0.29 0.28 0.27 0.29 0.31 0.30 0.29 0.28 0.30 0.30 0.32 0.33 0.37 0.40 0.43 0.43 0.44 0.44 0.45 0.47 0.47 0.47 0.48 0.52 0.57 0.62 0.65 0.71 0.81
0.25 0.22 0.24 0.25 0.18 0.22 0.24 0.15 0.19 0.57 0.75 0.32 0.18 0.24 0.24 0.23 0.23 0.25 0.28 0.27 0.24 0.22 0.20 0.20 0.19 0.18 0.21 0.26 0.30 0.30 0.30 0.33 0.38 0.40 0.41 0.43 0.42 0.43 0.45 0.46 0.49 0.50 0.52 0.54
0.19 0.20 0.11 0.09 0.11 0.23 0.24 0.16 0.19 0.36 0.30 0.28 0.15 0.13 0.15 0.14 0.17 0.21 0.22 0.19 0.16 0.15 0.12 0.11 0.12 0.13 0.16 0.20 0.23 0.24 0.27 0.31 0.37 0.38 0.37 0.37 0.39 0.39 0.39 0.38 0.38 0.36 0.35 0.36
0.18 0.20 0.12 0.09 0.07 0.14 0.18 0.11 0.10 0.12 0.11 0.12 0.10 0.11 0.10 0.13 0.17 0.20 0.19 0.16 0.15 0.13 0.11 0.08 0.08 0.09 0.11 0.16 0.25 0.31 0.35 0.36 0.36 0.37 0.36 0.36 0.37 0.37 0.37 0.34 0.30 0.29 0.30 0.32
0.15 0.20 0.27 0.14 0.04 0.15 0.20 0.13 0.10 0.09 0.09 0.11 0.14 0.12 0.12 0.18 0.24 0.27 0.21 0.14 0.12 0.11 0.09 0.08 0.07 0.09 0.12 0.20 0.35 0.49 0.55 0.51 0.46 0.44 0.40 0.36 0.36 0.36 0.37 0.37 0.37 0.36 0.35 0.36
0.15 0.23 0.41 0.27 0.14 0.28 0.21 0.10 0.07 0.07 0.11 0.14 0.13 0.11 0.12 0.15 0.20 0.20 0.14 0.09 0.09 0.09 0.08 0.08 0.08 0.11 0.16 0.24 0.37 0.48 0.56 0.60 0.57 0.55 0.53 0.48 0.49 0.51 0.53 0.55 0.56 0.54 0.54 0.55
0.09 0.27 0.51 0.42 0.28 0.16 0.11 0.08 0.11 0.12 0.14 0.13 0.12 0.08 0.07 0.09 0.13 0.13 0.09 0.07 0.08 0.09 0.08 0.08 0.09 0.11 0.18 0.24 0.31 0.43 0.54 0.58 0.63 0.70 0.77 0.76 0.75 0.77 0.80 0.85 0.88 0.85 0.81 0.80
0.09 0.25 0.58 0.53 0.41 0.17 0.11 0.06 0.09 0.12 0.20 0.10 0.10 0.08 0.07 0.08 0.15 0.13 0.10 0.09 0.09 0.10 0.10 0.10 0.10 0.13 0.20 0.28 0.38 0.54 0.67 0.72 0.75 0.82 0.88 0.86 0.87 0.87 0.86 0.87 0.88 0.84 0.79 0.77
0.19 0.38 0.56 0.48 0.43 0.19 0.11 0.06 0.07 0.21 0.24 0.09 0.08 0.09 0.09 0.12 0.14 0.11 0.11 0.13 0.16 0.17 0.17 0.19 0.21 0.27 0.36 0.44 0.58 0.79 0.89 0.86 0.81 0.80 0.76 0.70 0.68 0.64 0.60 0.57 0.55 0.53 0.50 0.47
0.18 0.28 0.33 0.36 0.47 0.29 0.11 0.08 0.17 0.21 0.11 0.07 0.07 0.09 0.11 0.10 0.08 0.07 0.08 0.11 0.19 0.23 0.24 0.26 0.32 0.39 0.46 0.49 0.56 0.65 0.66 0.62 0.58 0.53 0.45 0.39 0.37 0.36 0.35 0.34 0.32 0.28 0.26 0.25
0.17 0.23 0.28 0.31 0.31 0.19 0.11 0.12 0.13 0.10 0.10 0.08 0.09 0.10 0.09 0.09 0.07 0.07 0.08 0.09 0.13 0.17 0.18 0.20 0.21 0.22 0.25 0.26 0.27 0.28 0.26 0.26 0.26 0.22 0.19 0.16 0.16 0.17 0.17 0.18 0.18 0.16 0.14 0.14
0.17 0.14 0.20 0.22 0.16 0.11 0.10 0.08 0.07 0.08 0.10 0.09 0.09 0.09 0.10 0.11 0.08 0.07 0.08 0.09 0.11 0.13 0.13 0.15 0.15 0.13 0.13 0.12 0.12 0.12 0.11 0.13 0.14 0.13 0.12 0.11 0.10 0.11 0.13 0.14 0.16 0.16 0.16 0.16
0.17 0.17 0.21 0.21 0.13 0.10 0.09 0.08 0.08 0.07 0.06 0.06 0.06 0.06 0.08 0.10 0.09 0.09 0.10 0.10 0.11 0.13 0.14 0.14 0.15 0.14 0.13 0.12 0.12 0.12 0.12 0.12 0.13 0.14 0.14 0.14 0.13 0.12 0.14 0.16 0.18 0.20 0.20 0.22
0.15 0.21 0.30 0.24 0.12 0.17 0.13 0.08 0.08 0.09 0.07 0.06 0.06 0.07 0.07 0.09 0.10 0.09 0.09 0.09 0.11 0.13 0.15 0.15 0.15 0.15 0.14 0.14 0.14 0.14 0.15 0.16 0.17 0.18 0.19 0.20 0.20 0.19 0.19 0.20 0.21 0.24 0.27 0.29